Regional Weather Roundup
Issued by NWS

Home | Current Version | Previous Version | Graphics & Text | Print | Product List | Glossary On
Versions: 1 2 3 4 5 6 7 8 9 10 11 12 13 14 15 16 17 18 19 20 21 22 23 24 25 26 27 28 29 30 31 32 33 34 35 36 37 38 39 40 41 42 43 44 45 46 47 48 49 50
000
ASUS45 KBOU 270607
RWRCO

WEATHER ROUNDUP FOR COLORADO
NATIONAL WEATHER SERVICE DENVER/BOULDER CO
1100 PM MST THU FEB 26 2015

NOTE: "FAIR" INDICATES FEW OR NO CLOUDS BELOW 12000 FEET WITH NO
SIGNIFICANT WEATHER AND/OR OBSTRUCTIONS TO VISIBILITY.

COZ001>005-013-030-031-270700-
...NORTHWEST COLORADO...

CITY           SKY/WX    TMP DP  RH WIND       PRES   REMARKS
CRAIG          FLURRIES  23  18  81 S3        29.87S
HAYDEN         CLOUDY    21  18  86 CALM      29.84F
MEEKER         LGT SNOW  25  23  92 CALM      29.84F FOG
MOUNT WERNER   NOT AVBL
STEAMBOAT SPGS CLOUDY    19  16  90 NW3       29.83F
WALDEN         CLOUDY     9   3  78 NW3       29.82F
$$

COZ006>008-011-270700-
...WEST CENTRAL VALLEYS...

CITY           SKY/WX    TMP DP  RH WIND       PRES   REMARKS
GRAND JUNCTION CLOUDY    34  25  69 N3        29.84F
MONTROSE       CLOUDY    30  23  75 CALM      29.87F
EAGLE          FLURRIES  27  25  93 W7        29.84S WCI  19
RIFLE          CLOUDY    32  26  78 E7        29.84S WCI  26
DELTA          CLOUDY    33  28  81 NE5       29.86F WCI  29
NUCLA          CLOUDY    28  27  93 SE5       29.89F WCI  23
$$

COZ017>023-064>068-270700-
...SOUTHWEST COLORADO...

CITY           SKY/WX    TMP DP  RH WIND       PRES   REMARKS
DURANGO        LGT SNOW  27  26  96 N3        29.83F FOG
CORTEZ         FOG       27  26  96 S3        29.85S VSB 1/2
PAGOSA SPRINGS LGT SNOW  27  26  99 CALM      29.82F
TELLURIDE      LGT SNOW  20  20  98 W5        29.81F WCI  14
WOLF CREEK PAS LGT SNOW  10  10 100 SW13G18   29.78F VSB 3/4 WCI  -5
$$

COZ009-010-012-014-032>034-037-058>063-270700-
...CENTRAL COLORADO...

CITY           SKY/WX    TMP DP  RH WIND       PRES   REMARKS
ASPEN          CLOUDY    19  16  88 CALM      29.78F
BUENA VISTA    LGT SNOW   7   3  84 SE8       29.93F WCI  -6
COPPER MTN     LGT SNOW  12   5  73 MISG      29.70F
BERTHOUD PASS  LGT SNOW   1  -4  78 NW12      29.68F VSB 1   WCI -15
COTTONWOOD PAS LGT SNOW   7   1  78 E5        29.82F WCI  -2
GUNNISON       MOCLDY    16  10  79 CALM      29.85S
KREMMLING      CLOUDY    18  10  73 N8        29.83F WCI   7
LEADVILLE      LGT SNOW   0  -3  87 S12       29.77F FOG     WCI -17
MONARCH PASS   CLOUDY     9   3  78 MISG      29.84F
SALIDA         CLOUDY     9   4  78 E9G17     30.03F WCI  -4
SUNLIGHT       SNOW      16  14  93 CALM        N/A  VSB 1/2
WILKERSON PASS CLOUDY     0  -6  78 W3        29.76F HAZE
$$

COZ069>075-270700-
...SAN LUIS VALLEY/SANGRE DE CRISTO MOUNTAINS...

CITY           SKY/WX    TMP DP  RH WIND       PRES   REMARKS
ALAMOSA        CLOUDY    22  17  81 N3        29.82F
LA VETA PASS   LGT SNOW  -4  -8  84 N10       29.80F WCI -21
SAGUACHE       LGT SNOW  23  19  86 CALM      29.83F
$$

COZ035-036-038>040-270700-
...NORTHERN COLORADO FRONT RANGE...

CITY           SKY/WX    TMP DP  RH WIND       PRES   REMARKS
DENVER INTL AP LGT SNOW  12   8  84 S17       30.08F VSB 3/4 WCI  -5
DMNS CITY PARK   N/A     12   9  89 W7        30.08F WCI   1
AURORA         NOT AVBL
FRONT RANGE AP NOT AVBL
ERIE MUNI ARPT LGT SNOW  13  10  91 NW7       30.11F WCI   2
BOULDER MUN AP LGT SNOW  12  10  92 NW6       30.10F WCI   3
CENTENNIAL     LGT SNOW  10   6  84 S7        30.06F FOG     WCI  -1
BROOMFIELD     LGT SNOW  12  10  92 N10       30.07F WCI  -1
FORT COLLINS   MOCLDY    12   9  85 E6        30.15F WCI   3
LONGMONT       CLOUDY    14  10  83 N5        30.15F WCI   6
$$

COZ041-046-047-076>085-087-088-270700-
...PIKES PEAK/PALMER DIVIDE AND SOUTHERN FOOTHILLS...

CITY           SKY/WX    TMP DP  RH WIND       PRES   REMARKS
COLO. SPRINGS  LGT SNOW   9   6  88 SE9       30.09F VSB 3/4 WCI  -4
A. F. ACADEMY  FLURRIES   5   1  85 S8        30.05F WCI  -8
ELLICOTT       NOT AVBL
FALCON         LGT SNOW   5   2  86 S8        30.05F WCI  -8
FORT CARSON    NOT AVBL
LIMON          LGT SNOW   8   6  92 SE16      30.15F FOG     WCI -10
MONUMENT HILL  PTCLDY     1  -2  85 S10       29.99F WCI -14
TRINIDAD       LGT SNOW  12   8  84 NW9       30.07F VSB 1   WCI   0
$$

COZ042>045-048>051-090-091-270700-
...NORTHEAST COLORADO...

CITY           SKY/WX    TMP DP  RH WIND       PRES   REMARKS
GREELEY ARPT   CLOUDY    14   7  73 SE13      30.15F WCI   0
AKRON          LGT SNOW  11   8  88 SE16      30.20F FOG     WCI  -6
BURLINGTON     LGT SNOW  14   9  80 SE9       30.26F VSB 1   WCI   2
WRAY           CLOUDY    15   3  59 E12       30.32S WCI   1
STERLING       LGT SNOW  12   9  85 E9        30.26F WCI   0
HOLYOKE        NOT AVBL
FORT MORGAN    LGT SNOW  13  10  88 SE12      30.21F WCI  -1
$$

COZ086-089-092>099-270700-
...SOUTHEAST COLORADO...

CITY           SKY/WX    TMP DP  RH WIND       PRES   REMARKS
PUEBLO         SNOW      13  11  92 E7        30.18F VSB 1/2 WCI   3
LA JUNTA       LGT SNOW  16  11  80 E16       30.22F WCI   1
LAMAR          LGT SNOW  15  12  88 SE8       30.28F FOG     WCI   4
SPRINGFIELD      N/A     13  10  88 E12       30.23F WCI  -1
$$



USA.gov is the U.S. government's official web portal to all federal, state and local government web resources and services.